• In Uzbekistan
  • List of Countries
  • For 7 days
  • Water Temperature
  • Satellite Maps
  • Weather Map
  • Weather Widgets
  • user-avatar
    Login

    Hourly Weather Rawson

    Today, 18 June, Monday

    Time Temperature Precipitation Wind Pressure Humidity
    00:00 +14°C° 0 mm 6 mps 757 mmHg 63%
    01:00 +14°C° 0 mm 5 mps 757 mmHg 64%
    02:00 +14°C° 0 mm 5 mps 757 mmHg 64%
    03:00 +13°C° 0 mm 4 mps 757 mmHg 66%
    04:00 +13°C° 0 mm 4 mps 757 mmHg 68%
    05:00 +12°C° 0 mm 3 mps 757 mmHg 70%
    06:00 +13°C° 0 mm 2 mps 757 mmHg 73%
    07:00 +12°C° 0 mm 2 mps 757 mmHg 76%
    08:00 +11°C° 0 mm 1 mps 757 mmHg 79%
    09:00 +13°C° 0 mm 2 mps 757 mmHg 74%
    10:00 +13°C° 0 mm 3 mps 757 mmHg 68%
    11:00 +16°C° 0 mm 3 mps 757 mmHg 62%
    12:00 +15°C° 0 mm 4 mps 757 mmHg 60%
    13:00 +17°C° 0 mm 4 mps 756 mmHg 58%
    14:00 +16°C° 0 mm 5 mps 755 mmHg 56%
    15:00 +17°C° 0 mm 4 mps 755 mmHg 60%
    16:00 +15°C° 0 mm 4 mps 754 mmHg 64%
    17:00 +14°C° 0 mm 4 mps 754 mmHg 68%
    18:00 +14°C° 0 mm 3 mps 754 mmHg 67%
    19:00 +14°C° 0 mm 3 mps 754 mmHg 67%
    20:00 +14°C° 0 mm 3 mps 753 mmHg 66%
    21:00 +14°C° 0 mm 4 mps 753 mmHg 66%
    22:00 +14°C° 0 mm 5 mps 753 mmHg 66%
    23:00 +13°C° 0 mm 6 mps 753 mmHg 66%

    Tomorrow, 19 June, Tuesday

    Time Temperature Precipitation Wind Pressure Humidity
    00:00 +13°C° 0 mm 5 mps 753 mmHg 70%
    01:00 +12°C° 0 mm 5 mps 753 mmHg 74%
    02:00 +10°C° 0 mm 5 mps 754 mmHg 78%
    03:00 +10°C° 0 mm 5 mps 754 mmHg 78%
    04:00 +10°C° 0 mm 4 mps 754 mmHg 78%
    05:00 +10°C° 0 mm 4 mps 754 mmHg 78%
    06:00 +9°C° 0 mm 5 mps 755 mmHg 76%
    07:00 +9°C° 0 mm 6 mps 756 mmHg 74%
    08:00 +8°C° 0 mm 7 mps 757 mmHg 72%
    09:00 +9°C° 0 mm 8 mps 758 mmHg 63%
    10:00 +8°C° 0 mm 9 mps 759 mmHg 54%
    11:00 +8°C° 0 mm 9 mps 761 mmHg 45%
    12:00 +8°C° 0 mm 9 mps 761 mmHg 39%
    13:00 +8°C° 0 mm 9 mps 761 mmHg 33%
    14:00 +10°C° 0 mm 8 mps 761 mmHg 27%
    15:00 +9°C° 0 mm 8 mps 761 mmHg 28%
    16:00 +8°C° 0 mm 7 mps 761 mmHg 30%
    17:00 +8°C° 0 mm 6 mps 761 mmHg 32%
    18:00 +7°C° 0 mm 6 mps 761 mmHg 35%
    19:00 +5°C° 0 mm 6 mps 762 mmHg 38%
    20:00 +5°C° 0 mm 6 mps 762 mmHg 41%
    21:00 +4°C° 0 mm 6 mps 762 mmHg 43%
    22:00 +4°C° 0 mm 6 mps 762 mmHg 44%
    23:00 +4°C° 0 mm 7 mps 762 mmHg 45%

    Day after tomorrow, 20 June, Wednesday

    Time Temperature Precipitation Wind Pressure Humidity
    00:00 +4°C° 0 mm 6 mps 762 mmHg 45%
    01:00 +3°C° 0 mm 6 mps 762 mmHg 44%
    02:00 +3°C° 0 mm 6 mps 761 mmHg 44%
    03:00 +3°C° 0 mm 7 mps 761 mmHg 47%
    04:00 +3°C° 0 mm 7 mps 760 mmHg 50%
    05:00 +3°C° 0 mm 7 mps 760 mmHg 52%
    06:00 +3°C° 0 mm 7 mps 759 mmHg 55%
    07:00 +3°C° 0 mm 7 mps 759 mmHg 57%
    08:00 +2°C° 0 mm 6 mps 759 mmHg 59%
    09:00 +4°C° 0 mm 6 mps 758 mmHg 53%
    10:00 +6°C° 0 mm 5 mps 758 mmHg 48%
    11:00 +7°C° 0 mm 5 mps 757 mmHg 42%
    12:00 +8°C° 0 mm 6 mps 757 mmHg 38%
    13:00 +8°C° 0 mm 7 mps 756 mmHg 35%
    14:00 +9°C° 0 mm 8 mps 755 mmHg 32%
    15:00 +7°C° 0 mm 8 mps 755 mmHg 33%
    16:00 +7°C° 0 mm 8 mps 755 mmHg 35%
    17:00 +6°C° 0 mm 8 mps 754 mmHg 36%
    18:00 +6°C° 0 mm 9 mps 754 mmHg 37%
    19:00 +6°C° 0 mm 9 mps 754 mmHg 38%
    20:00 +5°C° 0 mm 9 mps 753 mmHg 39%
    21:00 +6°C° 0 mm 10 mps 753 mmHg 41%
    22:00 +6°C° 0 mm 11 mps 753 mmHg 43%
    23:00 +5°C° 0 mm 12 mps 753 mmHg 46%

    21 June, Thursday

    Time Temperature Precipitation Wind Pressure Humidity
    00:00 +5°C° 0 mm 12 mps 754 mmHg 49%
    01:00 +4°C° 0 mm 12 mps 754 mmHg 52%
    02:00 +4°C° 0 mm 12 mps 755 mmHg 56%
    03:00 +3°C° 0 mm 12 mps 755 mmHg 55%
    04:00 +3°C° 0 mm 13 mps 756 mmHg 54%
    05:00 +3°C° 0 mm 13 mps 756 mmHg 53%
    06:00 +1°C° 0 mm 13 mps 757 mmHg 49%
    07:00 +1°C° 0 mm 13 mps 758 mmHg 46%
    08:00 0°C° 0 mm 12 mps 758 mmHg 43%
    09:00 +1°C° 0 mm 13 mps 759 mmHg 40%
    10:00 +3°C° 0 mm 13 mps 759 mmHg 38%
    11:00 +4°C° 0 mm 13 mps 760 mmHg 35%
    12:00 +5°C° 0 mm 13 mps 759 mmHg 33%
    13:00 +5°C° 0 mm 13 mps 759 mmHg 31%
    14:00 +7°C° 0 mm 13 mps 759 mmHg 30%
    15:00 +6°C° 0 mm 11 mps 759 mmHg 32%
    16:00 +6°C° 0 mm 10 mps 759 mmHg 34%
    17:00 +5°C° 0 mm 9 mps 759 mmHg 36%
    18:00 +5°C° 0 mm 8 mps 759 mmHg 39%
    19:00 +5°C° 0 mm 8 mps 760 mmHg 41%
    20:00 +4°C° 0 mm 8 mps 760 mmHg 44%
    21:00 +4°C° 0 mm 8 mps 760 mmHg 47%
    22:00 +4°C° 0 mm 8 mps 760 mmHg 49%
    23:00 +4°C° 0 mm 8 mps 760 mmHg 52%

    22 June, Friday

    Time Temperature Precipitation Wind Pressure Humidity
    00:00 +3°C° 0 mm 7 mps 761 mmHg 55%
    01:00 +3°C° 0 mm 7 mps 761 mmHg 57%
    02:00 +2°C° 0 mm 7 mps 761 mmHg 60%
    03:00 +1°C° 0 mm 6 mps 761 mmHg 58%
    04:00 +1°C° 0 mm 6 mps 761 mmHg 56%
    05:00 -1°C° 0 mm 6 mps 761 mmHg 54%
    06:00 0°C° 0 mm 5 mps 761 mmHg 54%
    07:00 0°C° 0 mm 4 mps 761 mmHg 54%
    08:00 -1°C° 0 mm 4 mps 761 mmHg 54%
    09:00 +1°C° 0 mm 4 mps 761 mmHg 50%
    10:00 +3°C° 0 mm 4 mps 761 mmHg 46%
    11:00 +4°C° 0 mm 4 mps 761 mmHg 42%
    12:00 +5°C° 0 mm 4 mps 760 mmHg 44%
    13:00 +6°C° 0 mm 5 mps 760 mmHg 45%
    14:00 +7°C° 0 mm 6 mps 760 mmHg 47%
    15:00 +6°C° 0 mm 5 mps 760 mmHg 49%
    16:00 +5°C° 0 mm 5 mps 760 mmHg 52%
    17:00 +5°C° 0 mm 5 mps 760 mmHg 54%
    18:00 +3°C° 0 mm 5 mps 760 mmHg 54%
    19:00 +2°C° 0 mm 5 mps 761 mmHg 54%
    20:00 +2°C° 0 mm 5 mps 761 mmHg 54%
    21:00 +1°C° 0 mm 5 mps 761 mmHg 54%
    22:00 +1°C° 0 mm 5 mps 761 mmHg 54%
    23:00 +1°C° 0 mm 5 mps 761 mmHg 54%

    23 June, Saturday

    Time Temperature Precipitation Wind Pressure Humidity
    00:00 +1°C° 0 mm 5 mps 761 mmHg 54%
    01:00 0°C° 0 mm 5 mps 761 mmHg 53%
    02:00 -1°C° 0 mm 6 mps 760 mmHg 53%
    03:00 -1°C° 0 mm 6 mps 760 mmHg 53%
    04:00 -1°C° 0 mm 7 mps 761 mmHg 54%
    05:00 -1°C° 0 mm 7 mps 761 mmHg 54%
    06:00 -1°C° 0 mm 7 mps 761 mmHg 53%
    07:00 -1°C° 0 mm 7 mps 762 mmHg 53%
    08:00 -2°C° 0 mm 7 mps 762 mmHg 52%
    09:00 0°C° 0 mm 7 mps 763 mmHg 47%
    10:00 +3°C° 0 mm 7 mps 763 mmHg 43%
    11:00 +4°C° 0 mm 7 mps 764 mmHg 38%
    12:00 +5°C° 0 mm 7 mps 764 mmHg 37%
    13:00 +5°C° 0 mm 6 mps 764 mmHg 36%
    14:00 +7°C° 0 mm 6 mps 764 mmHg 35%
    15:00 +6°C° 0 mm 5 mps 764 mmHg 38%
    16:00 +5°C° 0 mm 4 mps 764 mmHg 40%
    17:00 +4°C° 0 mm 3 mps 764 mmHg 42%
    18:00 +4°C° 0 mm 3 mps 764 mmHg 43%
    19:00 +3°C° 0 mm 3 mps 764 mmHg 43%
    20:00 +3°C° 0 mm 3 mps 763 mmHg 44%
    21:00 +3°C° 0 mm 3 mps 763 mmHg 44%
    22:00 +3°C° 0 mm 4 mps 763 mmHg 44%
    23:00 +3°C° 0 mm 4 mps 763 mmHg 44%
    Show more